Regional Weather Roundup
Issued by NWS

Home | Current Version | Previous Version | Graphics & Text | Print | Product List | Glossary On
Versions: 1 2 3 4 5 6 7 8 9 10 11 12 13 14 15 16 17 18 19 20 21 22 23 24 25 26 27 28 29 30 31 32 33 34 35 36 37 38 39 40 41 42 43 44 45 46 47 48 49 50
000
ASUS43 KLMK 301010
RWRKY
KENTUCKY REGIONAL WEATHER ROUNDUP
NATIONAL WEATHER SERVICE LOUISVILLE KY
600 AM EDT THU OCT 30 2014

NOTE "FAIR" INDICATES FEW OR NO CLOUDS BELOW 12,000 FEET
WITH NO SIGNIFICANT WEATHER AND/OR OBSTRUCTIONS TO VISIBILITY.

KYZ001>023-026-027-061>063-070>075-301100-
WESTERN AND SOUTH CENTRAL KENTUCKY

CITY           SKY/WX    TMP DP  RH WIND       PRES   REMARKS
PADUCAH        CLEAR     36  34  92 CALM      30.16S
HENDERSON      CLEAR     34  30  86 CALM      30.17R
OWENSBORO      CLEAR     37  35  92 CALM      30.17R
HOPKINSVILLE   CLEAR     39  39  99 CALM      30.15S
BOWLING GREEN  CLEAR     38  35  89 CALM      30.15S
GLASGOW        CLEAR     35  35 100 CALM      30.14S
$$

KYZ024-025-028>034-038-045-046-053-301100-
NORTH CENTRAL KENTUCKY

CITY           SKY/WX    TMP DP  RH WIND       PRES   REMARKS
LOUISVILLE/SDF CLEAR     41  36  82 CALM      30.16R
LOUISVILLE/LOU CLEAR     38  35  89 CALM      30.16S
FORT KNOX      CLEAR     34  33  94 NW2       30.13F
$$

KYZ035>037-039>044-047>052-055>060-089>105-301100-
NORTHEAST KENTUCKY

CITY           SKY/WX    TMP DP  RH WIND       PRES   REMARKS
LEXINGTON      CLEAR     40  34  79 CALM      30.13F
COVINGTON      PTCLDY    44  34  67 NW6       30.14R
FRANKFORT      CLEAR     34  31  88 N5        30.14R WCI  30
$$

KYZ054-064>069-076>088-106>120-301100-
SOUTHEAST KENTUCKY

CITY           SKY/WX    TMP DP  RH WIND       PRES   REMARKS
JACKSON        CLEAR     40  33  76 CALM      30.12S
LONDON         CLEAR     40  35  83 N6        30.12S
SOMERSET       CLEAR     39  36  87 N3        30.14S
MIDDLESBORO    FOG       36  36 100 CALM      30.12S VSB 1/4
MONTICELLO     SUNNY     34  33  96 CALM      30.15R FOG
$$




USA.gov is the U.S. government's official web portal to all federal, state and local government web resources and services.